Location: Kershaw
(34.5481°N, 80.5823°W)
Time: 19:13:11
(UTC+00:00)

deb Explorer IX - Pass Details

Date: 10 October 2022
Orbit: 533 x 1057 km, 38.8° (Epoch: 06 December)

Event Time Altitude Azimuth Distance (km) Brightness Sun altitude
Exits shadow 08:27:35 15° 76° (ENE) 1,631 ? -36.6°
Drops below altitude 10° 08:28:22 10° 74° (ENE) 1,932 ? -36.5°
Sets 08:30:49 0° 71° (ENE) 2,908 ? -36.0°
